FENGYUN 1C DEB, 38173

Orbit data source: Space-Track

FENGYUN 1C DEB, 38173 is space debris in SSO originally from a launch on Mon, 10 May 1999 UTC launched from the Taiyaun Space Center, China (TSC). Fengyun 1C debris stems from the Chinese weather satellite Fengyun-1C, which was intentionally destroyed by a Chinese anti-satellite missile in 2007. This event dramatically increased the amount of space debris, with thousands of trackable fragments posing hazards to satellites and human spaceflight. The Fengyun 1C debris cloud has become a focal point in discussions about space sustainability and the need for international regulations to prevent the creation of new debris.

Loading next visibility...
Identifier
38173, 1999-025ERW
Orbit
SSO
Country
Flag of CNCN / PRC
Related business
Manufacturer
Unknown
Mission
Spacecraft
Bus & Motor
Unknown
Mass
Unknown
Launch date (UTC)
1999-05-10 (27 years ago)
Launch vehicle
Unknown
Launch site
Taiyaun Space Center, China (TSC)
Object type
Payload
Rocket body
Debris
Shape & HBR
Unknown shape, 0.1 m
Radar Cross Section
Small (<0.1 m²)

Expand to show TLE details & history
Last TLE update: 5 days ago

TLE from 5 days ago
0 FENGYUN 1C DEB
1 38173U 99025ERW 26253.01909054  .00003564  00000-0  10057-2 0  9996
2 38173  98.9860 171.1300 0160149  34.4503 326.6941 14.39126162645435
Epoch: 2026-09-10T00:27Z
TLE epoch observation values (Epoch: 2026-09-10T00:27:29.422Z)
Latitude
-0.00001°
Longitude
175.1946°
Altitude
669.304 km
Speed
7.572 km/s
True Right ascension
11h 24m 31s
True Declination
0° 00' 00"
Sunlit
Object was in daylight at epoch
Visualization orbit readout
Latitude
Unknown
Longitude
Unknown
Altitude
Unknown
Speed
Unknown
Apparent Right ascension
Unknown
Apparent Declination
Unknown
Sunlit
N/A
Visualization observer readout
Local Sidereal Time
05:50:01
Azimuth
Unknown
Elevation
Unknown
Doppler factor
Unknown
Orbital elements
Apogee altitude
872.826 km
Perigee altitude
644.24 km
Semi-major axis
7,136.67 km
Eccentricity
0.01601
Inclination
98.986°
RAAN
171.13°
Arg. of periapsis
34.4503°
True anomaly
325.66931°
Mean anomaly
326.6941°
Eccentric anomaly
326.18343°
Mean motion
3.59998 °/min
Orbital period
100 mins
BSTAR
0.0010057
Loading maneuver chart data...
Computing Atmospheric mass density...

Documentation

Showing up to 5 results
|